Time,TemperatureF,DewpointF,PressureIn,WindDirection,WindDirectionDegrees,WindSpeedMPH,WindSpeedGustMPH,Humidity,HourlyPrecipIn,Conditions,Clouds,dailyrainin,SolarRadiationWatts/m^2,SoftwareType,DateUTC
2013-03-04 00:00:00,33.0,26.0,29.73,NNW,330,13.0,32.0,75,0.00,,OVC090,0.00,0.00,VWS V14.01,2013-03-04 07:00:00,
2013-03-04 00:01:00,34.7,26.3,29.67,WNW,295,20.0,36.0,71,0.00,,FEW060,0.01,0.00,VWS V14.01,2013-03-04 07:01:00,
2013-03-04 00:06:00,34.7,26.3,29.67,NW,309,24.0,33.0,71,0.00,,CLR,0.00,0.00,VWS V14.01,2013-03-04 07:06:00,
2013-03-04 00:11:00,34.6,26.2,29.67,West,279,24.0,37.0,71,0.00,,CLR,0.00,0.00,VWS V14.01,2013-03-04 07:11:00,
2013-03-04 00:16:00,34.4,26.0,29.68,NW,318,25.0,37.0,71,0.00,,CLR,0.00,0.00,VWS V14.01,2013-03-04 07:16:00,
2013-03-04 00:21:00,34.2,26.1,29.68,NNW,327,23.0,37.0,72,0.00,,CLR,0.00,0.00,VWS V14.01,2013-03-04 07:21:00,
2013-03-04 00:26:00,33.8,26.1,29.68,NW,313,25.0,37.0,73,0.00,,CLR,0.00,0.00,VWS V14.01,2013-03-04 07:26:00,
2013-03-04 00:30:00,33.9,24.1,29.73,NW,317,13.0,24.0,67,0.00,,OVC090,0.00,0.00,VWS V14.01,2013-03-04 07:30:00,
2013-03-04 00:31:00,33.6,26.2,29.67,NNW,342,24.0,37.0,74,0.00,,CLR,0.00,0.00,VWS V14.01,2013-03-04 07:31:00,
2013-03-04 00:36:00,33.4,26.0,29.68,WNW,292,21.0,29.0,74,0.00,,CLR,0.00,0.00,VWS V14.01,2013-03-04 07:36:00,
2013-03-04 00:41:00,33.2,26.1,29.68,WNW,287,22.0,32.0,75,0.00,,CLR,0.00,0.00,VWS V14.01,2013-03-04 07:41:00,
2013-03-04 00:46:00,33.2,26.1,29.69,WNW,282,20.0,32.0,75,0.00,,CLR,0.00,0.00,VWS V14.01,2013-03-04 07:46:00,
2013-03-04 00:51:00,33.2,26.1,29.70,NW,314,22.0,32.0,75,0.00,,CLR,0.00,0.00,VWS V14.01,2013-03-04 07:51:00,
2013-03-04 00:56:00,33.1,26.0,29.71,NW,313,22.0,32.0,75,0.00,,CLR,0.00,0.00,VWS V14.01,2013-03-04 07:56:00,
2013-03-04 01:00:00,34.3,23.8,29.71,NNW,340,15.0,23.0,65,0.00,,OVC090,0.00,0.00,VWS V14.01,2013-03-04 08:00:00,
2013-03-04 01:01:00,33.0,26.0,29.73,NW,315,14.0,32.0,75,0.00,,CLR,0.00,0.00,VWS V14.01,2013-03-04 08:01:00,
2013-03-04 01:06:00,33.0,26.0,29.72,West,265,11.0,19.0,75,0.00,,CLR,0.00,0.00,VWS V14.01,2013-03-04 08:06:00,
2013-03-04 01:11:00,33.2,25.5,29.72,WSW,252,10.0,19.0,73,0.00,,CLR,0.00,0.00,VWS V14.01,2013-03-04 08:11:00,
2013-03-04 01:16:00,33.6,25.2,29.72,NW,304,14.0,22.0,71,0.00,,CLR,0.00,0.00,VWS V14.01,2013-03-04 08:16:00,
2013-03-04 01:21:00,34.0,24.9,29.73,WNW,285,15.0,22.0,69,0.00,,CLR,0.00,0.00,VWS V14.01,2013-03-04 08:21:00,
2013-03-04 01:26:00,34.2,24.4,29.73,NW,315,14.0,24.0,67,0.00,,CLR,0.00,0.00,VWS V14.01,2013-03-04 08:26:00,
2013-03-04 01:30:00,33.3,23.5,29.73,NNW,336,11.0,25.0,67,0.00,,OVC090,0.00,0.00,VWS V14.01,2013-03-04 08:30:00,
2013-03-04 01:31:00,33.9,24.1,29.73,NW,317,13.0,24.0,67,0.00,,CLR,0.00,0.00,VWS V14.01,2013-03-04 08:31:00,
2013-03-04 01:36:00,33.9,23.8,29.73,NNW,327,16.0,18.0,66,0.00,,CLR,0.00,0.00,VWS V14.01,2013-03-04 08:36:00,
2013-03-04 01:41:00,33.8,23.7,29.73,North,10,10.0,19.0,66,0.00,,CLR,0.00,0.00,VWS V14.01,2013-03-04 08:41:00,
2013-03-04 01:46:00,33.9,23.4,29.72,NW,323,12.0,19.0,65,0.00,,CLR,0.00,0.00,VWS V14.01,2013-03-04 08:46:00,
2013-03-04 01:51:00,34.3,23.4,29.72,WNW,290,22.0,23.0,64,0.00,,CLR,0.00,0.00,VWS V14.01,2013-03-04 08:51:00,
2013-03-04 01:56:00,34.5,23.6,29.71,WNW,303,14.0,23.0,64,0.00,,CLR,0.00,0.00,VWS V14.01,2013-03-04 08:56:00,
2013-03-04 02:00:00,32.6,22.1,29.72,NW,317,12.0,18.0,65,0.00,,OVC090,0.00,0.00,VWS V14.01,2013-03-04 09:00:00,
2013-03-04 02:01:00,34.3,23.8,29.71,NNW,346,12.0,15.0,65,0.00,,CLR,0.00,0.00,VWS V14.01,2013-03-04 09:01:00,
2013-03-04 02:06:00,34.2,23.7,29.72,WNW,294,18.0,21.0,65,0.00,,SCT085,0.00,0.00,VWS V14.01,2013-03-04 09:06:00,
2013-03-04 02:11:00,34.3,23.8,29.72,NNW,329,14.0,21.0,65,0.00,,SCT085,0.00,0.00,VWS V14.01,2013-03-04 09:11:00,
2013-03-04 02:16:00,34.3,23.8,29.72,NNW,332,18.0,25.0,65,0.00,,SCT085,0.00,0.00,VWS V14.01,2013-03-04 09:16:00,
2013-03-04 02:21:00,34.2,23.7,29.72,NW,312,12.0,25.0,65,0.00,,SCT085,0.00,0.00,VWS V14.01,2013-03-04 09:21:00,
2013-03-04 02:26:00,33.7,23.6,29.72,WNW,302,11.0,25.0,66,0.00,,SCT085,0.00,0.00,VWS V14.01,2013-03-04 09:26:00,
2013-03-04 02:30:00,31.0,22.0,29.72,WNW,300,9.0,13.0,69,0.00,,OVC090,0.00,0.00,VWS V14.01,2013-03-04 09:30:00,
2013-03-04 02:31:00,33.3,23.5,29.73,WNW,302,14.0,14.0,67,0.00,,SCT085,0.00,0.00,VWS V14.01,2013-03-04 09:31:00,
2013-03-04 02:36:00,33.3,23.5,29.73,NNW,330,5.0,17.0,67,0.00,,SCT085,0.00,0.00,VWS V14.01,2013-03-04 09:36:00,
2013-03-04 02:41:00,33.0,22.9,29.72,NW,319,9.0,17.0,66,0.00,,SCT085,0.00,0.00,VWS V14.01,2013-03-04 09:41:00,
2013-03-04 02:46:00,33.0,22.5,29.72,NW,314,7.0,17.0,65,0.00,,SCT085,0.00,0.00,VWS V14.01,2013-03-04 09:46:00,
2013-03-04 02:51:00,33.0,22.5,29.72,WNW,290,12.0,17.0,65,0.00,,SCT085,0.00,0.00,VWS V14.01,2013-03-04 09:51:00,
2013-03-04 02:56:00,32.9,22.4,29.72,NW,304,11.0,18.0,65,0.00,,SCT085,0.00,0.00,VWS V14.01,2013-03-04 09:56:00,
2013-03-04 03:00:00,29.8,20.9,29.73,WNW,287,3.0,13.0,69,0.00,,OVC090,0.00,0.00,VWS V14.01,2013-03-04 10:00:00,
2013-03-04 03:01:00,32.6,22.1,29.72,WNW,301,8.0,12.0,65,0.00,,SCT085,0.00,0.00,VWS V14.01,2013-03-04 10:01:00,
2013-03-04 03:06:00,32.3,22.2,29.72,NW,313,10.0,13.0,66,0.00,,CLR,0.00,0.00,VWS V14.01,2013-03-04 10:06:00,
2013-03-04 03:12:00,32.0,22.3,29.72,NNW,330,9.0,13.0,67,0.00,,CLR,0.00,0.00,VWS V14.01,2013-03-04 10:12:00,
2013-03-04 03:17:00,31.6,21.9,29.72,WNW,292,10.0,13.0,67,0.00,,CLR,0.00,0.00,VWS V14.01,2013-03-04 10:17:00,
2013-03-04 03:22:00,31.3,22.0,29.72,NNW,331,7.0,13.0,68,0.00,,CLR,0.00,0.00,VWS V14.01,2013-03-04 10:22:00,
2013-03-04 03:27:00,31.1,22.1,29.72,NW,319,9.0,13.0,69,0.00,,CLR,0.00,0.00,VWS V14.01,2013-03-04 10:27:00,
2013-03-04 03:30:00,26.8,18.7,29.75,SW,227,1.0,9.0,71,0.00,,OVC090,0.00,0.00,VWS V14.01,2013-03-04 10:30:00,
2013-03-04 03:32:00,31.0,22.0,29.72,WNW,303,9.0,12.0,69,0.00,,CLR,0.00,0.00,VWS V14.01,2013-03-04 10:32:00,
2013-03-04 03:37:00,30.7,21.8,29.72,NW,325,7.0,13.0,69,0.00,,CLR,0.00,0.00,VWS V14.01,2013-03-04 10:37:00,
2013-03-04 03:42:00,30.4,21.5,29.73,NNE,32,3.0,13.0,69,0.00,,CLR,0.00,0.00,VWS V14.01,2013-03-04 10:42:00,
2013-03-04 03:47:00,30.3,21.4,29.73,SW,236,2.0,13.0,69,0.00,,CLR,0.00,0.00,VWS V14.01,2013-03-04 10:47:00,
2013-03-04 03:52:00,30.1,21.2,29.73,SE,135,3.0,13.0,69,0.00,,CLR,0.00,0.00,VWS V14.01,2013-03-04 10:52:00,
2013-03-04 03:57:00,29.9,21.0,29.73,West,277,5.0,13.0,69,0.00,,CLR,0.00,0.00,VWS V14.01,2013-03-04 10:57:00,
2013-03-04 04:00:00,26.6,17.8,29.76,SW,221,2.0,4.0,69,0.00,,OVC090,0.00,0.00,VWS V14.01,2013-03-04 11:00:00,
2013-03-04 04:02:00,29.8,20.9,29.73,WSW,254,9.0,9.0,69,0.00,,CLR,0.00,0.00,VWS V14.01,2013-03-04 11:02:00,
2013-03-04 04:07:00,29.6,20.7,29.73,NW,309,4.0,9.0,69,0.00,,CLR,0.00,0.00,VWS V14.01,2013-03-04 11:07:00,
2013-03-04 04:12:00,29.6,20.7,29.73,NW,307,3.0,9.0,69,0.00,,CLR,0.00,0.00,VWS V14.01,2013-03-04 11:12:00,
2013-03-04 04:17:00,29.4,20.5,29.73,West,276,1.0,9.0,69,0.00,,CLR,0.00,0.00,VWS V14.01,2013-03-04 11:17:00,
2013-03-04 04:22:00,28.4,19.5,29.74,SW,227,1.0,9.0,69,0.00,,CLR,0.00,0.00,VWS V14.01,2013-03-04 11:22:00,
2013-03-04 04:27:00,27.5,19.0,29.74,SW,227,2.0,9.0,70,0.00,,CLR,0.00,0.00,VWS V14.01,2013-03-04 11:27:00,
2013-03-04 04:30:00,23.6,16.2,29.80,West,269,0.0,4.0,73,0.00,,OVC090,0.00,0.00,VWS V14.01,2013-03-04 11:30:00,
2013-03-04 04:32:00,26.7,18.6,29.75,SW,227,2.0,2.0,71,0.00,,CLR,0.00,0.00,VWS V14.01,2013-03-04 11:32:00,
2013-03-04 04:37:00,26.7,18.9,29.75,SW,216,1.0,3.0,72,0.00,,CLR,0.00,0.00,VWS V14.01,2013-03-04 11:37:00,
2013-03-04 04:42:00,26.4,18.6,29.76,SW,220,1.0,4.0,72,0.00,,CLR,0.00,0.00,VWS V14.01,2013-03-04 11:42:00,
2013-03-04 04:47:00,26.7,18.6,29.76,SW,223,0.0,4.0,71,0.00,,CLR,0.00,0.00,VWS V14.01,2013-03-04 11:47:00,
2013-03-04 04:52:00,26.9,18.4,29.76,SW,222,0.0,4.0,70,0.00,,CLR,0.00,0.00,VWS V14.01,2013-03-04 11:52:00,
2013-03-04 04:57:00,26.9,18.4,29.76,WSW,240,0.0,4.0,70,0.00,,CLR,0.00,0.00,VWS V14.01,2013-03-04 11:57:00,
2013-03-04 05:00:00,26.1,18.3,29.81,WNW,290,0.0,5.0,72,0.00,,OVC090,0.00,0.00,VWS V14.01,2013-03-04 12:00:00,
2013-03-04 05:02:00,26.4,17.3,29.78,SW,221,2.0,3.0,68,0.00,,FEW080,0.00,0.00,VWS V14.01,2013-03-04 12:02:00,
2013-03-04 05:07:00,26.0,17.2,29.79,SW,229,2.0,4.0,69,0.00,,FEW080,0.00,0.00,VWS V14.01,2013-03-04 12:07:00,
2013-03-04 05:12:00,25.7,16.6,29.79,WNW,284,3.0,4.0,68,0.00,,FEW080,0.00,0.00,VWS V14.01,2013-03-04 12:12:00,
2013-03-04 05:17:00,25.0,16.6,29.79,West,267,1.0,4.0,70,0.00,,FEW080,0.00,0.00,VWS V14.01,2013-03-04 12:17:00,
2013-03-04 05:22:00,24.3,16.3,29.80,West,265,0.0,4.0,71,0.00,,FEW080,0.00,0.00,VWS V14.01,2013-03-04 12:22:00,
2013-03-04 05:27:00,23.9,16.5,29.80,West,265,0.0,4.0,73,0.00,,FEW080,0.00,0.00,VWS V14.01,2013-03-04 12:27:00,
2013-03-04 05:30:00,28.9,17.2,29.82,NNW,340,7.0,14.0,61,0.00,,OVC090,0.00,9.00,VWS V14.01,2013-03-04 12:30:00,
2013-03-04 05:32:00,23.6,16.2,29.80,West,269,0.0,0.0,73,0.00,,FEW080,0.00,0.00,VWS V14.01,2013-03-04 12:32:00,
2013-03-04 05:37:00,23.3,16.2,29.81,West,268,0.0,0.0,74,0.00,,FEW080,0.00,0.00,VWS V14.01,2013-03-04 12:37:00,
2013-03-04 05:42:00,23.5,16.8,29.80,West,269,0.0,0.0,75,0.00,,FEW080,0.00,0.00,VWS V14.01,2013-03-04 12:42:00,
2013-03-04 05:47:00,23.4,16.4,29.81,SSW,210,0.0,4.0,74,0.00,,FEW080,0.00,0.00,VWS V14.01,2013-03-04 12:47:00,
2013-03-04 05:52:00,24.1,17.0,29.81,East,90,0.0,4.0,74,0.00,,FEW080,0.00,0.00,VWS V14.01,2013-03-04 12:52:00,
2013-03-04 05:57:00,24.9,17.5,29.80,NNE,29,2.0,4.0,73,0.00,,FEW080,0.00,0.00,VWS V14.01,2013-03-04 12:57:00,
2013-03-04 06:00:00,28.2,16.5,29.83,NW,314,5.0,17.0,61,0.00,,OVC090,0.00,62.00,VWS V14.01,2013-03-04 13:00:00,
2013-03-04 06:02:00,26.3,18.2,29.81,WNW,290,1.0,1.0,71,0.00,,FEW080,0.00,0.00,VWS V14.01,2013-03-04 13:02:00,
2013-03-04 06:07:00,26.9,18.4,29.81,North,355,5.0,9.0,70,0.00,,FEW080,0.00,0.00,VWS V14.01,2013-03-04 13:07:00,
2013-03-04 06:12:00,28.3,19.1,29.80,NNW,340,7.0,11.0,68,0.00,,FEW080,0.00,0.00,VWS V14.01,2013-03-04 13:12:00,
2013-03-04 06:17:00,29.0,18.7,29.81,NNW,338,6.0,14.0,65,0.00,,FEW080,0.00,0.00,VWS V14.01,2013-03-04 13:17:00,
2013-03-04 06:22:00,29.0,18.0,29.81,NNW,346,8.0,14.0,63,0.00,,FEW080,0.00,0.00,VWS V14.01,2013-03-04 13:22:00,
2013-03-04 06:27:00,28.9,17.5,29.81,NNW,345,5.0,14.0,62,0.00,,FEW080,0.00,7.00,VWS V14.01,2013-03-04 13:27:00,
2013-03-04 06:30:00,28.2,15.7,29.85,North,355,7.0,22.0,59,0.00,,OVC090,0.00,132.00,VWS V14.01,2013-03-04 13:30:00,
2013-03-04 06:32:00,29.0,17.2,29.82,NNW,331,11.0,14.0,61,0.00,,FEW080,0.00,11.00,VWS V14.01,2013-03-04 13:32:00,
2013-03-04 06:37:00,29.1,17.0,29.82,North,349,9.0,15.0,60,0.00,,FEW080,0.00,18.00,VWS V14.01,2013-03-04 13:37:00,
2013-03-04 06:42:00,28.9,16.8,29.82,North,349,6.0,15.0,60,0.00,,FEW080,0.00,18.00,VWS V14.01,2013-03-04 13:42:00,
2013-03-04 06:47:00,28.5,16.8,29.82,NW,323,11.0,15.0,61,0.00,,FEW080,0.00,19.00,VWS V14.01,2013-03-04 13:47:00,
2013-03-04 06:52:00,28.3,16.6,29.82,NNW,348,12.0,17.0,61,0.00,,FEW080,0.00,26.00,VWS V14.01,2013-03-04 13:52:00,
2013-03-04 06:57:00,28.2,16.5,29.83,NW,316,10.0,17.0,61,0.00,,FEW080,0.00,44.00,VWS V14.01,2013-03-04 13:57:00,
2013-03-04 07:00:00,30.0,16.2,29.84,NNW,344,3.0,15.0,56,0.00,,OVC090,0.00,281.00,VWS V14.01,2013-03-04 14:00:00,
2013-03-04 07:02:00,28.2,16.5,29.83,NNW,329,7.0,10.0,61,0.00,,FEW080,0.00,63.00,VWS V14.01,2013-03-04 14:02:00,
2013-03-04 07:07:00,28.4,16.3,29.83,NW,306,6.0,12.0,60,0.00,,FEW080,0.00,67.00,VWS V14.01,2013-03-04 14:07:00,
2013-03-04 07:12:00,29.2,15.5,29.84,NW,318,12.0,22.0,56,0.00,,FEW080,0.00,33.00,VWS V14.01,2013-03-04 14:12:00,
2013-03-04 07:17:00,29.1,15.0,29.84,NW,325,10.0,22.0,55,0.00,,FEW080,0.00,33.00,VWS V14.01,2013-03-04 14:17:00,
2013-03-04 07:22:00,28.8,15.1,29.84,NNW,340,4.0,22.0,56,0.00,,FEW080,0.00,107.00,VWS V14.01,2013-03-04 14:22:00,
2013-03-04 07:27:00,28.5,15.6,29.85,NW,319,4.0,22.0,58,0.00,,FEW080,0.00,102.00,VWS V14.01,2013-03-04 14:27:00,
2013-03-04 07:30:00,32.1,14.2,29.86,NW,315,14.0,19.0,47,0.00,,OVC090,0.00,360.00,VWS V14.01,2013-03-04 14:30:00,
2013-03-04 07:32:00,28.2,15.7,29.85,NNE,19,5.0,8.0,59,0.00,,FEW080,0.00,155.00,VWS V14.01,2013-03-04 14:32:00,
2013-03-04 07:38:00,28.2,16.1,29.85,North,360,10.0,10.0,60,0.00,,FEW080,0.00,120.00,VWS V14.01,2013-03-04 14:38:00,
2013-03-04 07:43:00,28.5,15.6,29.85,North,350,9.0,15.0,58,0.00,,FEW080,0.00,100.00,VWS V14.01,2013-03-04 14:43:00,
2013-03-04 07:48:00,28.6,15.7,29.85,North,360,7.0,15.0,58,0.00,,FEW080,0.00,70.00,VWS V14.01,2013-03-04 14:48:00,
2013-03-04 07:53:00,28.8,15.9,29.85,North,355,5.0,15.0,58,0.00,,FEW080,0.00,155.00,VWS V14.01,2013-03-04 14:53:00,
2013-03-04 07:58:00,29.4,15.7,29.85,North,350,6.0,15.0,56,0.00,,FEW080,0.00,271.00,VWS V14.01,2013-03-04 14:58:00,
2013-03-04 08:00:00,32.6,12.6,29.85,North,360,9.0,21.0,43,0.00,,OVC090,0.00,441.00,VWS V14.01,2013-03-04 15:00:00,
2013-03-04 08:03:00,30.2,16.0,29.87,North,349,4.0,9.0,55,0.00,,FEW060,0.00,271.00,VWS V14.01,2013-03-04 15:03:00,
2013-03-04 08:08:00,30.8,15.7,29.86,NNW,340,9.0,13.0,53,0.00,,FEW060,0.00,295.00,VWS V14.01,2013-03-04 15:08:00,
2013-03-04 08:13:00,31.0,15.4,29.86,North,355,5.0,13.0,52,0.00,,FEW060,0.00,308.00,VWS V14.01,2013-03-04 15:13:00,
2013-03-04 08:18:00,31.2,15.2,29.86,NNW,329,10.0,13.0,51,0.00,,FEW060,0.00,322.00,VWS V14.01,2013-03-04 15:18:00,
2013-03-04 08:23:00,31.4,14.9,29.86,NNW,337,5.0,13.0,50,0.00,,FEW060,0.00,336.00,VWS V14.01,2013-03-04 15:23:00,
2013-03-04 08:28:00,32.0,14.6,29.86,West,276,7.0,17.0,48,0.00,,FEW060,0.00,352.00,VWS V14.01,2013-03-04 15:28:00,
2013-03-04 08:30:00,33.1,13.1,29.87,WNW,286,9.0,20.0,43,0.00,,OVC090,0.00,517.00,VWS V14.01,2013-03-04 15:30:00,
2013-03-04 08:33:00,32.0,13.6,29.86,WNW,298,16.0,16.0,46,0.00,,FEW060,0.00,366.00,VWS V14.01,2013-03-04 15:33:00,
2013-03-04 08:38:00,32.3,13.9,29.86,NW,309,12.0,19.0,46,0.00,,FEW060,0.00,378.00,VWS V14.01,2013-03-04 15:38:00,
2013-03-04 08:43:00,32.9,13.9,29.86,NW,323,12.0,19.0,45,0.00,,FEW060,0.00,388.00,VWS V14.01,2013-03-04 15:43:00,
2013-03-04 08:48:00,32.9,13.9,29.85,West,275,9.0,19.0,45,0.00,,FEW060,0.00,404.00,VWS V14.01,2013-03-04 15:48:00,
2013-03-04 08:53:00,32.9,13.4,29.85,NNW,331,13.0,21.0,44,0.00,,FEW060,0.00,418.00,VWS V14.01,2013-03-04 15:53:00,
2013-03-04 08:58:00,32.6,13.1,29.86,NW,319,10.0,21.0,44,0.00,,FEW060,0.00,432.00,VWS V14.01,2013-03-04 15:58:00,
2013-03-04 09:00:00,33.4,12.2,29.87,NW,310,16.0,29.0,41,0.00,,OVC090,0.00,582.00,VWS V14.01,2013-03-04 16:00:00,
2013-03-04 09:03:00,32.9,12.9,29.87,NW,311,14.0,15.0,43,0.00,,CLR,0.00,446.00,VWS V14.01,2013-03-04 16:03:00,
2013-03-04 09:08:00,32.9,13.4,29.87,NW,320,14.0,16.0,44,0.00,,CLR,0.00,461.00,VWS V14.01,2013-03-04 16:08:00,
2013-03-04 09:13:00,32.8,13.3,29.87,North,355,11.0,16.0,44,0.00,,CLR,0.00,483.00,VWS V14.01,2013-03-04 16:13:00,
2013-03-04 09:18:00,32.9,12.9,29.87,NW,311,11.0,16.0,43,0.00,,CLR,0.00,482.00,VWS V14.01,2013-03-04 16:18:00,
2013-03-04 09:23:00,33.1,13.6,29.87,NNW,338,10.0,16.0,44,0.00,,CLR,0.00,492.00,VWS V14.01,2013-03-04 16:23:00,
2013-03-04 09:28:00,32.9,13.4,29.87,North,355,16.0,20.0,44,0.00,,CLR,0.00,508.00,VWS V14.01,2013-03-04 16:28:00,
2013-03-04 09:30:00,33.9,11.6,29.89,West,263,12.0,31.0,39,0.00,,OVC090,0.00,432.00,VWS V14.01,2013-03-04 16:30:00,
2013-03-04 09:33:00,33.2,13.7,29.87,NNE,21,15.0,16.0,44,0.00,,CLR,0.00,527.00,VWS V14.01,2013-03-04 16:33:00,
2013-03-04 09:38:00,33.5,15.4,29.87,WNW,303,17.0,17.0,47,0.00,,CLR,0.00,534.00,VWS V14.01,2013-03-04 16:38:00,
2013-03-04 09:43:00,32.6,14.6,29.87,NNW,331,13.0,22.0,47,0.00,,CLR,0.00,547.00,VWS V14.01,2013-03-04 16:43:00,
2013-03-04 09:48:00,32.6,13.6,29.87,WNW,289,12.0,22.0,45,0.00,,CLR,0.00,575.00,VWS V14.01,2013-03-04 16:48:00,
2013-03-04 09:53:00,34.4,13.7,29.87,NW,305,13.0,22.0,42,0.00,,CLR,0.00,596.00,VWS V14.01,2013-03-04 16:53:00,
2013-03-04 09:58:00,33.4,12.8,29.88,WNW,288,14.0,23.0,42,0.00,,CLR,0.00,582.00,VWS V14.01,2013-03-04 16:58:00,
2013-03-04 10:00:00,29.0,14.4,29.92,NW,325,33.0,34.0,54,0.00,,OVC090,0.00,257.00,VWS V14.01,2013-03-04 17:00:00,
2013-03-04 10:03:00,33.2,12.1,29.88,WNW,294,26.0,31.0,41,0.00,,FEW065,0.00,587.00,VWS V14.01,2013-03-04 17:03:00,
2013-03-04 10:08:00,33.3,12.2,29.89,NW,313,22.0,31.0,41,0.00,,FEW065,0.00,615.00,VWS V14.01,2013-03-04 17:08:00,
2013-03-04 10:13:00,33.0,12.4,29.89,NE,49,12.0,31.0,42,0.00,,FEW065,0.00,606.00,VWS V14.01,2013-03-04 17:13:00,
2013-03-04 10:18:00,32.7,11.6,29.89,NW,313,18.0,31.0,41,0.00,,FEW065,0.00,652.00,VWS V14.01,2013-03-04 17:18:00,
2013-03-04 10:23:00,33.0,11.3,29.89,NW,309,18.0,31.0,40,0.00,,FEW065,0.00,197.00,VWS V14.01,2013-03-04 17:23:00,
2013-03-04 10:28:00,33.7,12.0,29.90,WSW,248,18.0,31.0,40,0.00,,FEW065,0.00,798.00,VWS V14.01,2013-03-04 17:28:00,
2013-03-04 10:30:00,27.6,14.0,29.94,North,360,27.0,33.0,56,0.00,,OVC090,0.00,343.00,VWS V14.01,2013-03-04 17:30:00,
2013-03-04 10:33:00,34.4,12.0,29.89,NW,315,22.0,24.0,39,0.00,,FEW070,0.00,432.00,VWS V14.01,2013-03-04 17:33:00,
2013-03-04 10:38:00,32.1,10.5,29.89,West,269,21.0,28.0,40,0.00,,FEW070,0.00,269.00,VWS V14.01,2013-03-04 17:38:00,
2013-03-04 10:43:00,31.7,10.7,29.90,WNW,302,20.0,30.0,41,0.00,,FEW070,0.00,227.00,VWS V14.01,2013-03-04 17:43:00,
2013-03-04 10:48:00,31.1,12.2,29.91,NE,34,13.0,30.0,45,0.00,,FEW070,0.00,596.00,VWS V14.01,2013-03-04 17:48:00,
2013-03-04 10:53:00,29.4,14.4,29.91,NW,317,26.0,34.0,53,0.00,,FEW070,0.00,192.00,VWS V14.01,2013-03-04 17:53:00,
2013-03-04 10:58:00,29.2,15.5,29.92,NW,314,24.0,34.0,56,0.00,,FEW070,0.00,796.00,VWS V14.01,2013-03-04 17:58:00,
2013-03-04 11:00:00,31.1,8.5,29.93,NNW,346,19.0,36.0,38,0.00,,OVC090,0.00,842.00,VWS V14.01,2013-03-04 18:00:00,
2013-03-04 11:03:00,28.2,13.7,29.91,NW,306,14.0,33.0,54,0.00,,BKN060,0.00,267.00,VWS V14.01,2013-03-04 18:03:00,
2013-03-04 11:08:00,28.4,13.5,29.92,NNE,28,21.0,33.0,53,0.00,,BKN060,0.00,283.00,VWS V14.01,2013-03-04 18:08:00,
2013-03-04 11:13:00,28.6,13.6,29.92,NNW,333,23.0,33.0,53,0.00,,BKN060,0.00,371.00,VWS V14.01,2013-03-04 18:13:00,
2013-03-04 11:18:00,27.8,14.2,29.93,NNW,332,29.0,33.0,56,0.00,,BKN060,0.00,831.00,VWS V14.01,2013-03-04 18:18:00,
2013-03-04 11:23:00,28.4,14.3,29.92,NW,326,21.0,33.0,55,0.00,,BKN060,0.00,345.00,VWS V14.01,2013-03-04 18:23:00,
2013-03-04 11:28:00,27.7,14.1,29.94,NW,307,28.0,33.0,56,0.00,,BKN060,0.00,294.00,VWS V14.01,2013-03-04 18:28:00,
2013-03-04 11:29:00,27.6,14.0,29.94,NW,314,18.0,33.0,56,0.00,,BKN060,0.00,283.00,VWS V14.01,2013-03-04 18:29:00,
2013-03-04 11:30:00,27.7,14.1,29.94,NW,325,20.0,33.0,56,0.00,,BKN060,0.00,287.00,VWS V14.01,2013-03-04 18:30:00,
2013-03-04 11:31:00,27.6,14.0,29.94,NW,306,19.0,33.0,56,0.00,,BKN060,0.00,309.00,VWS V14.01,2013-03-04 18:31:00,
2013-03-04 11:36:00,27.8,12.9,29.94,WNW,298,19.0,31.0,53,0.00,,BKN060,0.00,332.00,VWS V14.01,2013-03-04 18:36:00,
2013-03-04 11:41:00,29.4,11.2,29.94,NNW,331,17.0,31.0,46,0.00,,BKN060,0.00,715.00,VWS V14.01,2013-03-04 18:41:00,
2013-03-04 11:46:00,30.2,9.9,29.94,NW,306,18.0,31.0,42,0.00,,BKN060,0.00,693.00,VWS V14.01,2013-03-04 18:46:00,
2013-03-04 11:51:00,30.8,8.8,29.93,NW,306,26.0,33.0,39,0.00,,BKN060,0.00,633.00,VWS V14.01,2013-03-04 18:51:00,
2013-03-04 11:56:00,30.3,7.8,29.94,WNW,300,21.0,36.0,38,0.00,,BKN060,0.00,744.00,VWS V14.01,2013-03-04 18:56:00,
2013-03-04 12:00:00,26.6,9.6,29.98,West,281,20.0,40.0,48,0.00,,OVC090,0.00,211.00,VWS V14.01,2013-03-04 19:00:00,
2013-03-04 12:01:00,31.1,8.5,29.93,NNW,346,19.0,36.0,38,0.00,,BKN060,0.00,842.00,VWS V14.01,2013-03-04 19:01:00,
2013-03-04 12:06:00,31.5,9.4,29.94,NW,306,7.0,27.0,39,0.00,,BKN060,0.00,684.00,VWS V14.01,2013-03-04 19:06:00,
2013-03-04 12:11:00,29.1,7.2,29.95,North,355,22.0,35.0,39,0.00,,BKN060,0.00,599.00,VWS V14.01,2013-03-04 19:11:00,
2013-03-04 12:16:00,29.3,8.0,29.95,WNW,300,23.0,35.0,40,0.00,,BKN060,0.00,747.00,VWS V14.01,2013-03-04 19:16:00,
2013-03-04 12:21:00,29.1,7.8,29.95,NW,313,27.0,35.0,40,0.00,,BKN060,0.00,279.00,VWS V14.01,2013-03-04 19:21:00,
2013-03-04 12:26:00,30.4,8.4,29.95,SSW,210,19.0,35.0,39,0.00,,BKN060,0.00,703.00,VWS V14.01,2013-03-04 19:26:00,
2013-03-04 12:30:00,26.6,11.8,29.98,WNW,297,13.0,38.0,53,0.00,,OVC090,0.00,555.00,VWS V14.01,2013-03-04 19:30:00,
2013-03-04 12:31:00,30.5,7.9,29.95,NW,304,17.0,19.0,38,0.00,,BKN060,0.00,708.00,VWS V14.01,2013-03-04 19:31:00,
2013-03-04 12:36:00,29.3,8.5,29.96,WNW,298,23.0,35.0,41,0.00,,BKN060,0.00,295.00,VWS V14.01,2013-03-04 19:36:00,
2013-03-04 12:41:00,28.7,7.4,29.96,West,260,22.0,38.0,40,0.00,,BKN060,0.00,338.00,VWS V14.01,2013-03-04 19:41:00,
2013-03-04 12:46:00,28.6,7.9,29.96,NNW,344,13.0,38.0,41,0.00,,BKN060,0.00,773.00,VWS V14.01,2013-03-04 19:46:00,
2013-03-04 12:51:00,29.7,9.4,29.96,NNE,15,13.0,38.0,42,0.00,,BKN060,0.00,255.00,VWS V14.01,2013-03-04 19:51:00,
2013-03-04 12:57:00,28.7,10.1,29.97,WNW,298,27.0,40.0,45,0.00,,BKN060,0.00,281.00,VWS V14.01,2013-03-04 19:57:00,
2013-03-04 13:00:00,24.8,15.4,30.01,West,279,21.0,42.0,67,0.00,,OVC090,0.00,536.00,VWS V14.01,2013-03-04 20:00:00,
2013-03-04 13:02:00,26.6,9.1,29.97,NW,304,29.0,29.0,47,0.00,,BKN060,0.00,211.00,VWS V14.01,2013-03-04 20:02:00,
2013-03-04 13:07:00,27.5,9.4,29.98,WNW,291,28.0,38.0,46,0.00,,,0.00,193.00,VWS V14.01,2013-03-04 20:07:00,
2013-03-04 13:12:00,28.0,9.9,29.97,WNW,299,17.0,38.0,46,0.00,,,0.00,524.00,VWS V14.01,2013-03-04 20:12:00,
2013-03-04 13:17:00,26.1,12.6,29.98,WNW,295,26.0,38.0,56,0.00,,,0.00,179.00,VWS V14.01,2013-03-04 20:17:00,
2013-03-04 13:22:00,25.5,13.2,29.98,WNW,300,14.0,38.0,59,0.00,,,0.00,225.00,VWS V14.01,2013-03-04 20:22:00,
2013-03-04 13:27:00,26.4,12.8,29.97,WSW,250,9.0,38.0,56,0.00,,,0.00,225.00,VWS V14.01,2013-03-04 20:27:00,
2013-03-04 13:30:00,24.0,14.6,30.04,WNW,302,26.0,35.0,67,0.00,,OVC090,0.00,220.00,VWS V14.01,2013-03-04 20:30:00,
2013-03-04 13:32:00,26.6,11.8,29.98,WNW,298,26.0,26.0,53,0.00,,,0.00,555.00,VWS V14.01,2013-03-04 20:32:00,
2013-03-04 13:37:00,26.8,11.6,29.98,NW,317,25.0,40.0,52,0.00,,,0.00,396.00,VWS V14.01,2013-03-04 20:37:00,
2013-03-04 13:42:00,26.4,14.8,29.99,NW,318,29.0,40.0,61,0.00,,,0.00,396.00,VWS V14.01,2013-03-04 20:42:00,
2013-03-04 13:47:00,26.4,14.0,29.99,NW,307,31.0,41.0,59,0.00,,,0.00,647.00,VWS V14.01,2013-03-04 20:47:00,
2013-03-04 13:52:00,26.2,15.0,30.00,NW,325,19.0,42.0,62,0.00,,,0.00,608.00,VWS V14.01,2013-03-04 20:52:00,
2013-03-04 13:57:00,24.6,16.9,30.01,WNW,292,21.0,42.0,72,0.00,,,0.00,496.00,VWS V14.01,2013-03-04 20:57:00,
2013-03-04 14:00:00,22.9,16.2,30.07,NNW,331,30.0,37.0,75,0.00,,OVC090,0.00,218.00,VWS V14.01,2013-03-04 21:00:00,
2013-03-04 14:02:00,24.9,15.5,30.01,NW,306,21.0,26.0,67,0.00,,,0.00,557.00,VWS V14.01,2013-03-04 21:02:00,
2013-03-04 14:07:00,25.2,15.4,30.01,NNW,337,28.0,34.0,66,0.00,,,0.00,510.00,VWS V14.01,2013-03-04 21:07:00,
2013-03-04 14:12:00,23.7,15.7,30.02,NNW,346,18.0,34.0,71,0.00,,,0.00,158.00,VWS V14.01,2013-03-04 21:12:00,
2013-03-04 14:17:00,23.6,15.6,30.03,WNW,303,25.0,34.0,71,0.00,,,0.00,257.00,VWS V14.01,2013-03-04 21:17:00,
2013-03-04 14:22:00,23.9,14.9,30.03,WNW,295,23.0,34.0,68,0.00,,,0.00,234.00,VWS V14.01,2013-03-04 21:22:00,
2013-03-04 14:27:00,23.9,14.9,30.04,WNW,295,26.0,34.0,68,0.00,,,0.00,236.00,VWS V14.01,2013-03-04 21:27:00,
2013-03-04 14:30:00,23.0,14.0,30.09,NNW,327,28.0,41.0,68,0.00,,OVC090,0.00,111.00,VWS V14.01,2013-03-04 21:30:00,
2013-03-04 14:32:00,24.0,14.6,30.04,West,271,28.0,35.0,67,0.00,,SCT033,0.00,237.00,VWS V14.01,2013-03-04 21:32:00,
2013-03-04 14:37:00,24.7,13.6,30.03,WNW,286,31.0,35.0,62,0.00,,SCT033,0.00,341.00,VWS V14.01,2013-03-04 21:37:00,
2013-03-04 14:42:00,25.0,12.7,30.04,NW,315,25.0,37.0,59,0.00,,SCT033,0.00,432.00,VWS V14.01,2013-03-04 21:42:00,
2013-03-04 14:47:00,23.9,13.5,30.05,NNW,338,28.0,37.0,64,0.00,,SCT033,0.00,345.00,VWS V14.01,2013-03-04 21:47:00,
2013-03-04 14:52:00,23.3,15.0,30.06,NNW,336,17.0,37.0,70,0.00,,SCT033,0.00,279.00,VWS V14.01,2013-03-04 21:52:00,
2013-03-04 14:57:00,22.8,15.1,30.06,WNW,290,27.0,37.0,72,0.00,,SCT033,0.00,181.00,VWS V14.01,2013-03-04 21:57:00,
2013-03-04 15:00:00,23.4,13.7,30.11,West,279,33.0,39.0,66,0.00,,OVC090,0.00,128.00,VWS V14.01,2013-03-04 22:00:00,
2013-03-04 15:02:00,22.9,16.2,30.08,NW,304,28.0,30.0,75,0.00,,,0.00,236.00,VWS V14.01,2013-03-04 22:02:00,
2013-03-04 15:07:00,23.5,15.2,30.08,NW,304,24.0,37.0,70,0.00,,,0.00,216.00,VWS V14.01,2013-03-04 22:07:00,
2013-03-04 15:12:00,24.2,13.4,30.08,North,360,35.0,40.0,63,0.00,,,0.00,216.00,VWS V14.01,2013-03-04 22:12:00,
2013-03-04 15:17:00,24.5,13.0,30.08,NW,304,24.0,41.0,61,0.00,,,0.00,134.00,VWS V14.01,2013-03-04 22:17:00,
2013-03-04 15:22:00,24.1,13.7,30.08,NW,320,23.0,41.0,64,0.00,,,0.00,322.00,VWS V14.01,2013-03-04 22:22:00,
2013-03-04 15:27:00,23.7,13.3,30.08,NW,315,22.0,41.0,64,0.00,,,0.00,388.00,VWS V14.01,2013-03-04 22:27:00,
2013-03-04 15:30:00,22.1,12.1,30.15,NW,322,26.0,48.0,65,0.00,,OVC090,0.00,104.00,VWS V14.01,2013-03-04 22:30:00,
2013-03-04 15:32:00,22.8,14.2,30.09,NNW,344,21.0,34.0,69,0.00,,OVC095,0.00,118.00,VWS V14.01,2013-03-04 22:32:00,
2013-03-04 15:37:00,22.2,15.2,30.10,West,278,20.0,36.0,74,0.00,,OVC095,0.00,130.00,VWS V14.01,2013-03-04 22:37:00,
2013-03-04 15:42:00,22.2,16.1,30.10,NNW,333,22.0,36.0,77,0.00,,OVC095,0.00,278.00,VWS V14.01,2013-03-04 22:42:00,
2013-03-04 15:47:00,22.9,14.9,30.10,WNW,283,13.0,38.0,71,0.00,,OVC095,0.00,100.00,VWS V14.01,2013-03-04 22:47:00,
2013-03-04 15:52:00,23.0,13.4,30.10,NW,305,33.0,39.0,66,0.00,,OVC095,0.00,97.00,VWS V14.01,2013-03-04 22:52:00,
2013-03-04 15:57:00,23.1,13.8,30.11,NNW,337,16.0,39.0,67,0.00,,OVC095,0.00,118.00,VWS V14.01,2013-03-04 22:57:00,
2013-03-04 16:00:00,20.7,15.5,30.17,NW,313,24.0,42.0,80,0.00,,OVC090,0.00,33.00,VWS V14.01,2013-03-04 23:00:00,
2013-03-04 16:02:00,23.3,13.6,30.12,NNE,14,23.0,34.0,66,0.00,,BKN110,0.00,128.00,VWS V14.01,2013-03-04 23:02:00,
2013-03-04 16:07:00,23.0,13.7,30.12,NW,316,26.0,42.0,67,0.00,,BKN110,0.00,135.00,VWS V14.01,2013-03-04 23:07:00,
2013-03-04 16:12:00,23.1,14.1,30.13,WNW,300,26.0,42.0,68,0.00,,BKN110,0.00,162.00,VWS V14.01,2013-03-04 23:12:00,
2013-03-04 16:17:00,22.7,14.7,30.13,North,360,27.0,42.0,71,0.00,,BKN110,0.00,160.00,VWS V14.01,2013-03-04 23:17:00,
2013-03-04 16:22:00,22.4,15.1,30.14,WNW,300,37.0,42.0,73,0.00,,BKN110,0.00,120.00,VWS V14.01,2013-03-04 23:22:00,
2013-03-04 16:27:00,22.3,12.7,30.15,NW,326,40.0,48.0,66,0.00,,BKN110,0.00,120.00,VWS V14.01,2013-03-04 23:27:00,
2013-03-04 16:30:00,20.7,14.6,30.20,WNW,284,21.0,40.0,77,0.00,,OVC090,0.00,9.00,VWS V14.01,2013-03-04 23:30:00,
2013-03-04 16:32:00,22.1,12.1,30.16,West,273,23.0,41.0,65,0.00,,,0.00,102.00,VWS V14.01,2013-03-04 23:32:00,
2013-03-04 16:37:00,21.9,12.6,30.16,WSW,240,29.0,42.0,67,0.00,,,0.00,84.00,VWS V14.01,2013-03-04 23:37:00,
2013-03-04 16:42:00,21.5,13.2,30.16,WNW,303,25.0,42.0,70,0.00,,,0.00,76.00,VWS V14.01,2013-03-04 23:42:00,
2013-03-04 16:47:00,21.1,13.8,30.17,WNW,295,15.0,42.0,73,0.00,,,0.00,60.00,VWS V14.01,2013-03-04 23:47:00,
2013-03-04 16:52:00,20.7,14.4,30.17,NW,315,22.0,42.0,76,0.00,,,0.00,44.00,VWS V14.01,2013-03-04 23:52:00,
2013-03-04 16:57:00,20.5,15.0,30.17,NW,313,19.0,42.0,79,0.00,,,0.00,40.00,VWS V14.01,2013-03-04 23:57:00,
2013-03-04 17:00:00,20.3,16.2,30.20,WNW,286,25.0,40.0,84,0.00,,OVC090,0.00,0.00,VWS V14.01,2013-03-05 00:00:00,
2013-03-04 17:02:00,20.8,15.6,30.18,NW,304,19.0,24.0,80,0.00,,,0.00,32.00,VWS V14.01,2013-03-05 00:02:00,
2013-03-04 17:07:00,21.1,15.6,30.19,WNW,286,19.0,34.0,79,0.00,,,0.00,21.00,VWS V14.01,2013-03-05 00:07:00,
2013-03-04 17:12:00,20.8,15.0,30.19,NW,304,29.0,38.0,78,0.00,,,0.00,30.00,VWS V14.01,2013-03-05 00:12:00,
2013-03-04 17:17:00,20.6,13.9,30.19,NW,315,27.0,40.0,75,0.00,,,0.00,21.00,VWS V14.01,2013-03-05 00:17:00,
2013-03-04 17:22:00,20.3,14.3,30.19,NW,321,28.0,40.0,77,0.00,,,0.00,19.00,VWS V14.01,2013-03-05 00:22:00,
2013-03-04 17:27:00,20.6,14.6,30.19,NW,308,26.0,40.0,77,0.00,,,0.00,14.00,VWS V14.01,2013-03-05 00:27:00,
2013-03-04 17:30:00,20.3,17.6,30.22,WNW,298,16.0,37.0,89,0.00,,OVC090,0.00,0.00,VWS V14.01,2013-03-05 00:30:00,
2013-03-04 17:32:00,20.7,14.6,30.20,North,360,23.0,33.0,77,0.00,,,0.00,9.00,VWS V14.01,2013-03-05 00:32:00,
2013-03-04 17:37:00,20.7,14.6,30.19,WNW,294,32.0,40.0,77,0.00,,,0.00,5.00,VWS V14.01,2013-03-05 00:37:00,
2013-03-04 17:42:00,20.7,14.9,30.20,NNW,329,33.0,40.0,78,0.00,,,0.00,0.00,VWS V14.01,2013-03-05 00:42:00,
2013-03-04 17:48:00,20.5,15.3,30.20,WNW,298,29.0,40.0,80,0.00,,,0.00,0.00,VWS V14.01,2013-03-05 00:48:00,
2013-03-04 17:53:00,20.3,15.7,30.20,WNW,303,28.0,40.0,82,0.00,,,0.00,0.00,VWS V14.01,2013-03-05 00:53:00,
2013-03-04 17:58:00,20.3,16.0,30.21,NW,320,32.0,40.0,83,0.00,,,0.00,0.00,VWS V14.01,2013-03-05 00:58:00,
2013-03-04 18:00:00,21.6,14.9,30.21,WNW,294,27.0,40.0,75,0.00,,OVC090,0.00,0.00,VWS V14.01,2013-03-05 01:00:00,
2013-03-04 18:02:00,20.3,16.2,30.20,NW,325,16.0,25.0,84,0.00,,,0.00,0.00,VWS V14.01,2013-03-05 01:02:00,
2013-03-04 18:07:00,20.3,16.5,30.21,NNW,344,18.0,37.0,85,0.00,,,0.00,0.00,VWS V14.01,2013-03-05 01:07:00,
2013-03-04 18:13:00,20.3,16.8,30.20,NNW,330,18.0,37.0,86,0.00,,,0.00,0.00,VWS V14.01,2013-03-05 01:13:00,
2013-03-04 18:18:00,20.3,17.1,30.21,NNW,348,13.0,37.0,87,0.00,,,0.00,0.00,VWS V14.01,2013-03-05 01:18:00,
2013-03-04 18:23:00,20.3,17.1,30.22,NNW,327,14.0,37.0,87,0.00,,,0.00,0.00,VWS V14.01,2013-03-05 01:23:00,
2013-03-04 18:28:00,20.3,17.3,30.21,NW,308,20.0,37.0,88,0.00,,,0.00,0.00,VWS V14.01,2013-03-05 01:28:00,
2013-03-04 18:30:00,21.6,14.9,30.21,NW,320,22.0,43.0,75,0.00,,OVC090,0.00,0.00,VWS V14.01,2013-03-05 01:30:00,
2013-03-04 18:33:00,20.3,17.6,30.22,NNW,346,19.0,29.0,89,0.00,,,0.00,0.00,VWS V14.01,2013-03-05 01:33:00,
2013-03-04 18:38:00,20.6,17.6,30.22,North,10,26.0,34.0,88,0.00,,,0.00,0.00,VWS V14.01,2013-03-05 01:38:00,
2013-03-04 18:43:00,21.2,16.6,30.22,NW,326,33.0,40.0,82,0.00,,,0.00,0.00,VWS V14.01,2013-03-05 01:43:00,
2013-03-04 18:48:00,21.2,15.4,30.22,NW,318,21.0,40.0,78,0.00,,,0.00,0.00,VWS V14.01,2013-03-05 01:48:00,
2013-03-04 18:53:00,21.2,14.8,30.22,WNW,298,22.0,40.0,76,0.00,,,0.00,0.00,VWS V14.01,2013-03-05 01:53:00,
2013-03-04 18:58:00,21.4,15.0,30.22,NW,306,38.0,40.0,76,0.00,,,0.00,0.00,VWS V14.01,2013-03-05 01:58:00,
2013-03-04 19:00:00,21.0,14.6,30.22,WNW,298,25.0,46.0,76,0.00,,OVC090,0.00,0.00,VWS V14.01,2013-03-05 02:00:00,
2013-03-04 19:03:00,21.7,15.0,30.21,NNW,338,24.0,36.0,75,0.00,,BKN026,0.00,0.00,VWS V14.01,2013-03-05 02:03:00,
2013-03-04 19:08:00,21.4,15.3,30.21,NNW,331,29.0,37.0,77,0.00,,BKN026,0.00,0.00,VWS V14.01,2013-03-05 02:08:00,
2013-03-04 19:13:00,21.4,15.3,30.21,NNW,331,22.0,37.0,77,0.00,,BKN026,0.00,0.00,VWS V14.01,2013-03-05 02:13:00,
2013-03-04 19:18:00,21.6,14.9,30.20,WNW,294,40.0,43.0,75,0.00,,BKN026,0.00,0.00,VWS V14.01,2013-03-05 02:18:00,
2013-03-04 19:23:00,21.6,14.9,30.21,WNW,302,40.0,43.0,75,0.00,,BKN026,0.00,0.00,VWS V14.01,2013-03-05 02:23:00,
2013-03-04 19:28:00,21.6,14.9,30.21,NW,304,27.0,43.0,75,0.00,,BKN026,0.00,0.00,VWS V14.01,2013-03-05 02:28:00,
2013-03-04 19:30:00,20.3,16.0,30.24,WNW,300,34.0,41.0,83,0.00,,OVC090,0.00,0.00,VWS V14.01,2013-03-05 02:30:00,
2013-03-04 19:33:00,21.6,14.9,30.20,NW,317,32.0,38.0,75,0.00,,,0.00,0.00,VWS V14.01,2013-03-05 02:33:00,
2013-03-04 19:38:00,21.5,15.1,30.22,NW,306,29.0,38.0,76,0.00,,,0.00,0.00,VWS V14.01,2013-03-05 02:38:00,
2013-03-04 19:43:00,21.5,14.8,30.20,North,349,33.0,41.0,75,0.00,,,0.00,0.00,VWS V14.01,2013-03-05 02:43:00,
2013-03-04 19:48:00,21.4,14.4,30.22,WNW,292,33.0,41.0,74,0.00,,,0.00,0.00,VWS V14.01,2013-03-05 02:48:00,
2013-03-04 19:53:00,21.2,14.2,30.22,NNW,345,30.0,46.0,74,0.00,,,0.00,0.00,VWS V14.01,2013-03-05 02:53:00,
2013-03-04 19:58:00,21.1,14.4,30.22,NW,306,29.0,46.0,75,0.00,,,0.00,0.00,VWS V14.01,2013-03-05 02:58:00,
2013-03-04 20:00:00,20.8,14.4,30.25,North,360,30.0,40.0,76,0.00,,OVC090,0.00,0.00,VWS V14.01,2013-03-05 03:00:00,
2013-03-04 20:03:00,21.0,14.6,30.21,NNW,337,27.0,41.0,76,0.00,,,0.00,0.00,VWS V14.01,2013-03-05 03:03:00,
2013-03-04 20:08:00,20.6,15.1,30.21,NW,304,34.0,41.0,79,0.00,,,0.00,0.00,VWS V14.01,2013-03-05 03:08:00,
2013-03-04 20:13:00,20.3,15.7,30.22,NNW,329,26.0,41.0,82,0.00,,,0.00,0.00,VWS V14.01,2013-03-05 03:13:00,
2013-03-04 20:18:00,20.1,16.0,30.23,NW,304,36.0,41.0,84,0.00,,,0.00,0.00,VWS V14.01,2013-03-05 03:18:00,
2013-03-04 20:23:00,20.1,16.3,30.23,NW,320,23.0,41.0,85,0.00,,,0.00,0.00,VWS V14.01,2013-03-05 03:23:00,
2013-03-04 20:28:00,20.1,16.3,30.24,NW,318,32.0,41.0,85,0.00,,,0.00,0.00,VWS V14.01,2013-03-05 03:28:00,
2013-03-04 20:30:00,21.2,13.9,30.26,NW,313,23.0,41.0,73,0.00,,OVC090,0.00,0.00,VWS V14.01,2013-03-05 03:30:00,
2013-03-04 20:33:00,20.3,15.7,30.24,NW,311,25.0,40.0,82,0.00,,,0.00,0.00,VWS V14.01,2013-03-05 03:33:00,
2013-03-04 20:38:00,20.3,15.4,30.25,North,355,19.0,40.0,81,0.00,,,0.00,0.00,VWS V14.01,2013-03-05 03:38:00,
2013-03-04 20:43:00,20.3,15.1,30.25,West,277,27.0,40.0,80,0.00,,,0.00,0.00,VWS V14.01,2013-03-05 03:43:00,
2013-03-04 20:48:00,20.3,15.1,30.26,NW,326,22.0,40.0,80,0.00,,,0.00,0.00,VWS V14.01,2013-03-05 03:48:00,
2013-03-04 20:53:00,20.4,14.9,30.26,NW,313,23.0,40.0,79,0.00,,,0.00,0.00,VWS V14.01,2013-03-05 03:53:00,
2013-03-04 20:58:00,20.8,14.4,30.25,WNW,300,24.0,40.0,76,0.00,,,0.00,0.00,VWS V14.01,2013-03-05 03:58:00,
2013-03-04 21:00:00,20.5,15.0,30.27,NNW,329,18.0,36.0,79,0.00,,OVC090,0.00,0.00,VWS V14.01,2013-03-05 04:00:00,
2013-03-04 21:03:00,20.8,14.4,30.25,NNW,334,23.0,33.0,76,0.00,,,0.00,0.00,VWS V14.01,2013-03-05 04:03:00,
2013-03-04 21:08:00,20.8,14.1,30.25,NW,311,20.0,34.0,75,0.00,,,0.00,0.00,VWS V14.01,2013-03-05 04:08:00,
2013-03-04 21:13:00,20.8,14.1,30.25,NW,321,26.0,34.0,75,0.00,,,0.00,0.00,VWS V14.01,2013-03-05 04:13:00,
2013-03-04 21:18:00,21.0,14.0,30.26,NW,311,16.0,34.0,74,0.00,,,0.00,0.00,VWS V14.01,2013-03-05 04:18:00,
2013-03-04 21:23:00,21.2,13.9,30.25,North,355,28.0,40.0,73,0.00,,,0.00,0.00,VWS V14.01,2013-03-05 04:23:00,
2013-03-04 21:28:00,21.2,13.9,30.26,NW,306,17.0,40.0,73,0.00,,,0.00,0.00,VWS V14.01,2013-03-05 04:28:00,
2013-03-04 21:30:00,19.1,14.8,30.29,NNW,337,21.0,31.0,83,0.00,,OVC090,0.00,0.00,VWS V14.01,2013-03-05 04:30:00,
2013-03-04 21:33:00,21.2,13.9,30.26,WNW,287,27.0,35.0,73,0.00,,OVC030,0.00,0.00,VWS V14.01,2013-03-05 04:33:00,
2013-03-04 21:38:00,21.3,14.0,30.26,NW,326,18.0,36.0,73,0.00,,OVC030,0.00,0.00,VWS V14.01,2013-03-05 04:38:00,
2013-03-04 21:43:00,21.3,14.0,30.27,North,5,21.0,36.0,73,0.00,,OVC030,0.00,0.00,VWS V14.01,2013-03-05 04:43:00,
2013-03-04 21:48:00,21.1,14.4,30.27,NNW,327,22.0,36.0,75,0.00,,OVC030,0.00,0.00,VWS V14.01,2013-03-05 04:48:00,
2013-03-04 21:53:00,20.8,15.0,30.27,NW,317,21.0,36.0,78,0.00,,OVC030,0.00,0.00,VWS V14.01,2013-03-05 04:53:00,
2013-03-04 21:58:00,20.6,15.1,30.27,NNW,342,22.0,36.0,79,0.00,,OVC030,0.00,0.00,VWS V14.01,2013-03-05 04:58:00,
2013-03-04 22:00:00,20.6,15.1,30.27,NNW,341,13.0,36.0,79,0.00,,OVC030,0.00,0.00,VWS V14.01,2013-03-05 05:00:00,
2013-03-04 22:05:00,20.4,15.2,30.30,NW,314,19.0,26.0,80,0.00,,OVC018,0.00,0.00,VWS V14.01,2013-03-05 05:05:00,
2013-03-04 22:10:00,20.3,15.1,30.29,NNW,327,26.0,26.0,80,0.00,,OVC018,0.00,0.00,VWS V14.01,2013-03-05 05:10:00,
2013-03-04 22:15:00,20.3,15.4,30.29,NNW,338,13.0,31.0,81,0.00,,OVC018,0.00,0.00,VWS V14.01,2013-03-05 05:15:00,
2013-03-04 22:20:00,20.0,15.4,30.29,NNW,344,14.0,31.0,82,0.00,,OVC018,0.00,0.00,VWS V14.01,2013-03-05 05:20:00,
2013-03-04 22:25:00,19.6,15.3,30.30,NW,306,16.0,31.0,83,0.00,,OVC018,0.00,0.00,VWS V14.01,2013-03-05 05:25:00,
2013-03-04 22:30:00,19.2,14.9,30.30,North,355,17.0,31.0,83,0.00,,OVC018,0.00,0.00,VWS V14.01,2013-03-05 05:30:00,
2013-03-04 22:35:00,19.0,14.7,30.30,NW,324,16.0,28.0,83,0.00,,,0.00,0.00,VWS V14.01,2013-03-05 05:35:00,
2013-03-04 22:40:00,18.8,14.8,30.30,NNW,342,17.0,28.0,84,0.00,,,0.00,0.00,VWS V14.01,2013-03-05 05:40:00,
2013-03-04 22:45:00,18.8,14.8,30.30,NW,319,24.0,32.0,84,0.00,,,0.00,0.00,VWS V14.01,2013-03-05 05:45:00,
2013-03-04 22:50:00,18.9,15.1,30.30,NNW,336,22.0,32.0,85,0.00,,,0.00,0.00,VWS V14.01,2013-03-05 05:50:00,
2013-03-04 22:55:00,18.8,15.1,30.30,NNW,329,20.0,32.0,85,0.00,,,0.00,0.00,VWS V14.01,2013-03-05 05:55:00,
2013-03-04 23:00:00,18.6,14.6,30.30,NNW,327,21.0,33.0,84,0.00,,,0.00,0.00,VWS V14.01,2013-03-05 06:00:00,
2013-03-04 23:05:00,18.2,13.9,30.31,North,355,24.0,31.0,83,0.00,,,0.00,0.00,VWS V14.01,2013-03-05 06:05:00,
2013-03-04 23:10:00,17.7,13.4,30.31,NW,306,26.0,33.0,83,0.00,,,0.00,0.00,VWS V14.01,2013-03-05 06:10:00,
2013-03-04 23:15:00,17.6,13.3,30.31,NW,324,23.0,36.0,83,0.00,,,0.00,0.00,VWS V14.01,2013-03-05 06:15:00,
2013-03-04 23:20:00,17.5,13.2,30.31,NNW,327,22.0,36.0,83,0.00,,,0.00,0.00,VWS V14.01,2013-03-05 06:20:00,
2013-03-04 23:25:00,17.3,13.0,30.31,West,264,24.0,36.0,83,0.00,,,0.00,0.00,VWS V14.01,2013-03-05 06:25:00,
2013-03-04 23:30:00,17.0,12.7,30.31,NNW,333,23.0,36.0,83,0.00,,,0.00,0.00,VWS V14.01,2013-03-05 06:30:00,
2013-03-04 23:35:00,16.9,12.6,30.32,NNE,25,17.0,28.0,83,0.00,,SCT014,0.00,0.00,VWS V14.01,2013-03-05 06:35:00,
2013-03-04 23:40:00,17.0,12.7,30.32,North,355,17.0,39.0,83,0.00,,SCT014,0.00,0.00,VWS V14.01,2013-03-05 06:40:00,
2013-03-04 23:45:00,16.8,12.5,30.32,NNW,331,17.0,39.0,83,0.00,,SCT014,0.00,0.00,VWS V14.01,2013-03-05 06:45:00,
2013-03-04 23:50:00,16.9,12.6,30.33,North,355,29.0,39.0,83,0.00,,SCT014,0.00,0.00,VWS V14.01,2013-03-05 06:50:00,
2013-03-04 23:55:00,17.0,12.5,30.33,NW,304,22.0,39.0,82,0.00,,SCT014,0.00,0.00,VWS V14.01,2013-03-05 06:55:00,